Location: Cambroso
(45.2833°N, 12.0850°E)
Time: 15:51:44
(UTC+00:00)

Cosmos 1092 Rocket - Pass Details

Date: 21 January 2021
Orbit: 954 x 995 km, 83.0° (Epoch: 26 February)

Event Time Altitude Azimuth Distance (km) Brightness Sun altitude
Rises 17:16:57 0° 162° (SSE) 3,655 7.0 -12.8°
Reaches altitude 10° 17:19:37 10° 155° (SSE) 2,706 6.2 -13.3°
Maximum altitude 17:25:16 39° 88° (E) 1,412 4.4 -14.3°
Drops below altitude 10° 17:30:55 10° 22° (NNE) 2,701 6.0 -15.2°
Sets 17:33:33 0° 15° (NNE) 3,648 6.7 -15.7°
